Location: Newark
(36.1358°N, 115.1208°W)
Time: 21:03:54
(UTC+00:00)

Vanguard 1 Rocket - Pass Details

Date: 26 February 2020
Orbit: 650 x 4226 km, 34.3° (Epoch: 09 April)

Event Time Altitude Azimuth Distance (km) Brightness Sun altitude
Rises 10:08:48 0° 258° (WSW) 5,464 - -48.9°
Reaches altitude 10° 10:13:10 10° 258° (WSW) 3,905 - -48.2°
Maximum altitude 10:22:08 74° 175° (S) 1,053 - -46.6°
Drops below altitude 10° 10:27:15 10° 91° (E) 2,300 - -45.7°
Exits shadow 10:27:59 - 90° (E) 2,582 10.3 -45.6°
Sets 10:29:14 0° 89° (E) 3,089 10.8 -45.3°
